Hourly Data Report for July 22, 2021

TORONTO CITY CENTRE
ONTARIO
Current Station Operator: NAVCAN

43°37'39.000" N
79°23'46.000" W
76.80 m
6158359
71265
YTZ

Download Data

Hourly Data (July 2021)
Hourly Data Report for July 22, 2021
TIME
LST
Temp Definition
°C
Dew Point Definition
°C
Rel Hum Definition
%
Precip. Amount Definition
mm

Wind Dir Definition
10's deg

Wind Spd Definition
km/h
Visibility Definition
km
Stn Press Definition
kPa
Hmdx Definition


Wind Chill Definition


Weather Definition


00:00 18.6 11.5 63 0.0 33 15 16.1 101.06     LegendNANA
01:00 18.3 11.9 66 0.0 33 17 16.1 101.06     LegendNANA
02:00 18.0 12.3 69 0.0 34 9 16.1 101.06     LegendNANA
03:00 17.6 11.9 69 0.0 33 11 16.1 101.12     LegendNANA
04:00 17.3 11.2 67 0.0 32 13 16.1 101.13     LegendNANA
05:00 16.9 10.6 66 0.0 34 13 16.1 101.17     LegendNANA
06:00 16.8 10.5 66 0.0 33 15 16.1 101.22     LegendNANA
07:00 18.1 10.7 61 0.0 33 13 16.1 101.23     LegendNANA
08:00 20.2 11.7 58 0.0 33 13 16.1 101.26     LegendNANA
09:00 21.9 12.3 54 0.0 28 8 16.1 101.24     LegendNANA
10:00 22.0 14.0 60 0.0 20 17 16.1 101.22 25   LegendNANA
11:00 22.1 15.9 67 0.0 19 13 16.1 101.24 27   LegendNANA
12:00 22.6 16.8 69 0.0 18 18 16.1 101.22 28   LegendNANA
13:00 22.0 16.9 73 0.0 20 21 16.1 101.19 27   LegendNANA
14:00 22.5 16.4 68 0.0 20 13 16.1 101.18 27   LegendNANA
15:00 23.3 14.4 57 0.0 19 17 16.1 101.16 27   LegendNANA
16:00 22.4 15.5 65 0.0 21 15 16.1 101.14 27   LegendNANA
17:00 23.8 13.5 52 0.0 LegendMM 13 16.1 101.13 27   LegendNANA
18:00 24.5 9.5 38 0.0 35 9 16.1 101.15 26   LegendNANA
19:00 24.3 8.0 35 0.0 35 9 16.1 101.17 25   LegendNANA
20:00 23.5 10.4 43 0.0 35 11 16.1 101.19 25   LegendNANA
21:00 22.7 9.6 43 0.0 35 9 16.1 101.24     LegendNANA
22:00 22.4 9.4 43 0.0 35 8 16.1 101.25     LegendNANA
23:00 21.2 9.7 47 0.0 34 11 16.1 101.25     LegendNANA

Notes on Data Quality.

Legend

  • E = Estimated
  • M = Missing
  • NA = Not Available*
  • [empty] = Indicates an unobserved value
Date modified: